Regional Weather Roundup
Issued by NWS Grand Forks, ND

Home | Current Version | Previous Version | Graphics & Text | Print | Product List | Glossary On
Versions: 1 2 3 4 5 6 7 8 9 10 11 12 13 14 15 16 17 18 19 20 21 22 23 24 25 26 27 28 29 30 31 32 33 34 35 36 37 38 39 40 41 42 43 44 45 46 47 48 49 50
000
ASUS43 KFGF 241631
RWRFGF
PRAIRIE TO PINES  WEATHER ROUNDUP
NATIONAL WEATHER SERVICE EASTERN NORTH DAKOTA/GRAND FORKS ND
1100 AM CDT THU APR 24 2014

 **SATELLITE DATA USED TO AUGMENT SKY COVER AT AUTOMATED STATIONS**
 *****  WEATHER ACROSS EASTERN NORTH DAKOTA  *****

CITY           SKY/WX    TMP DP  RH WIND       PRES   REMARKS
GRAND FORKS    LGT RAIN  43  39  87 SE12      29.76S FOG
GRAND FRKS AFB MIX PCPN  41  41 100 SE12      29.75S
GRAND FRKS NWS   N/A     41 N/A N/A SE14        N/A
DEVILS LAKE    CLOUDY    41  36  81 SW6       29.71R
FARGO          LGT RAIN  42  40  92 SE9       29.75F FOG
WAHPETON ARPT  CLOUDY    41  37  87 SE8       29.75F
$$

 ***** WEATHER ACROSS CENTRAL AND WESTERN NORTH DAKOTA  *****

CITY           SKY/WX    TMP DP  RH WIND       PRES   REMARKS
BISMARCK       SUNNY     56  28  34 W14G20    29.75S
MINOT          SUNNY     51  34  52 W14       29.69R
JAMESTOWN      CLOUDY    46  44  93 W3        29.70F
MINOT AFB      MOSUNNY   51  36  58 NW16      29.67S
GARRISON         N/A     50  32  50 W16       29.71S
WILLISTON      SUNNY     50  33  52 W13       29.73S
DICKINSON      SUNNY     54  22  28 W20       29.74F
HETTINGER      MOSUNNY   53  25  33 W18G26    29.79F
$$

 *****  OTHER AIRPORT OBSERVATIONS IN OUR AREA  *****

CITY           SKY/WX    TMP DP  RH WIND       PRES   REMARKS
WALHALLA         N/A     39  39 100 SE10      29.74R FOG
GRAFTON AIRPOR CLOUDY    39  39 100 SE14      29.75S FOG
VALLEY CITY AR CLOUDY    41  41 100 S5        29.72F
CANDO          CLOUDY    39  39 100 S6        29.71S FOG
CAVALIER APRT  CLOUDY    39  39 100 SE9       29.74S FOG
GWINNER        PTSUNNY   45  45 100 SE5       29.74F
ROLLA          FOG       37  37 100 S8        29.70S VSB 1/2
 ***** THE ABOVE OBSERVATIONS ARE NON NWS ARE NOT QUALITY
       CONTROLLED AND MAY MIS-REPORT RAIN FOR SNOW...
$$

  *****  WEATHER ACROSS NORTHERN MINNESOTA  *****

CITY           SKY/WX    TMP DP  RH WIND       PRES   REMARKS
FLAG ISLAND    LGT RAIN  36  36 100 E12       29.83S
WARROAD        CLOUDY    37  34  87 SE10      29.82S
ROSEAU         RAIN      39  34  81 SE9       29.81R
HALLOCK        LGT RAIN  41  37  87 SE9       29.76S
THF RVR FALLS  CLOUDY    37  36  93 SE10      29.79S
BAUDETTE       LGT RAIN  39  37  92 SE10      29.83F
WASKISH        DRIZZLE   37  37 100 E7        29.82S
CROOKSTON      MIX PCPN  39  39 100 S10       29.78S
$$
  *****  WEATHER ACROSS CENTRAL AND WEST MINNESOTA  *****

CITY           SKY/WX    TMP DP  RH WIND       PRES   REMARKS
FOSSTON        RAIN      37  36  93 SE6       29.79R
BEMIDJI        CLOUDY    37  36  98 SE8       29.79S FOG
PARK RAPIDS    LGT RAIN  38  38 100 SE8       29.78R FOG
ELBOW LAKE     RAIN      40  39  98 SE3       29.76F
WADENA         RAIN      39  37  93 SE8       29.77S
DETROIT LAKES  MIX PCPN  37  37 100 S10       29.78S
MOORHEAD       LGT RAIN  43  43 100 SE3       29.77F
FERGUS FALLS   LGT RAIN  41  39  93 SE6       29.75S
MORRIS MN      LGT RAIN  43  41  93 NE5       29.74F
STAPLES        LGT RAIN  37  37 100 SE6       29.77F
$$
  *****  WEATHER ELSEWHERE ACROSS MINNESOTA  *****

CITY           SKY/WX    TMP DP  RH WIND       PRES   REMARKS
DULUTH         LGT SNOW  34  32  92 E14       29.87F VSB 3/4 WCI  25
INTRNTL FALLS  LGT RAIN  39  36  89 SE13      29.86F FOG
ELY            CLOUDY    37  34  87 SE16G22   29.91S
CLOQUET        LGT SNOW  34  34 100 E9        29.85F
WHEATON        LGT RAIN  43  43 100 E9        29.75F
BRAINERD       LGT RAIN  43  37  79 SE10G16   29.78F
HIBBING        CLOUDY    37  34  89 SE12      29.85F
ALEXANDRIA     LGT RAIN  41  39  93 S5        29.76F FOG
SAINT CLOUD    LGT RAIN  41  37  87 E6        29.76F
MINNEAPOLIS    LGT RAIN  41  40  96 E10       29.75F FOG
$$

  *****  WEATHER ACROSS SOUTH DAKOTA  *****

CITY           SKY/WX    TMP DP  RH WIND       PRES   REMARKS
SIOUX FALLS    CLOUDY    50  46  86 N18G24    29.71S
BROOKINGS      NOT AVBL
WATERTOWN      CLOUDY    43  41  93 NW8       29.73R
HURON          MOSUNNY   58  37  45 NW14      29.74F
SISSETON         N/A     40  40 100 CALM      29.72F
ABERDEEN       MOSUNNY   53  41  63 NW7       29.73F
MITCHELL       SUNNY     58  43  57 N16       29.75F
PIERRE         SUNNY     59  29  31 NW21      29.79F
MOBRIDGE       SUNNY     57  29  34 NW17      29.74F
RAPID CITY     SUNNY     57  22  25 N13G21    29.85S
$$

  *****  SOME WEATHER IN NEARBY STATES *****

CITY           SKY/WX    TMP DP  RH WIND       PRES   REMARKS
GLASGOW MT     SUNNY     50  31  48 W15       29.77S
GREAT FALLS MT CLOUDY    48  31  51 SW12      29.77F
CHEYENNE WY    SUNNY     46  15  28 W20       30.00F
SCOTTSBLUFF NE SUNNY     55  21  26 W16G24    29.95F
OMAHA NE       CLOUDY    55  50  83 NW18      29.69S
DES MOINES IA  CLOUDY    55  52  89 SW6       29.67R
DAVENPORT IA   PTSUNNY   58  40  51 SE22G30   29.76F
CHICAGO IL     CLOUDY    56  35  45 SE18G24   29.94S
EAU CLAIRE WI  LGT RAIN  41  39  93 SE15G24   29.80S
LA CROSSE WI   HVY RAIN  43  40  89 SE10      29.79F FOG
$$

  *****  SOME NATIONAL WEATHER *****

CITY           SKY/WX    TMP DP  RH WIND       PRES   REMARKS
LA GUARDIA NY  MOSUNNY   53  16  23 NW18G31   29.91S
RALEIGH NC     PTSUNNY   62  31  31 CALM      30.15F
ATLANTA GA     MOSUNNY   68  43  40 NE7       30.06S
NEW ORLEANS LA MOSUNNY   77  64  64 S9        29.99S
OKLAHOMA CITY  PTSUNNY   66  52  59 NW24G33   29.78R
ALBUQUERQUE NM MOSUNNY   55   9  16 NW10      30.16S
SALT LAKE CITY PTSUNNY   50  24  36 SE16      30.06S
LOS ANGELES CA MOSUNNY   66  52  60 CALM      30.00R
BOISE ID       LGT RAIN  47  41  80 SE16      29.94F
SEATTLE WA     NOT AVBL
$$

*** WEATHER ACROSS MANITOBA...SASKATCHEWAN AND ONTARIO ***
                ***ONTARIO***

CITY           SKY/WX    TMP DP  RH WIND       PRES   REMARKS
GERALDTON      CLOUDY    48  23  37 SE8       30.08F
THUNDER BAY    CLOUDY    39  30  70 E15       30.06F
SIOUX LOOKOUT  CLOUDY    43  28  56 SE12G18   29.98R
TORONTO        MOSUNNY   48  14  25 N9G20     30.15F
BIG TROUT LK   SUNNY     30  21  69 E12G21    30.18S WCI  21
PICKLE LAKE    PTSUNNY   50  21  32 S5        30.01F
DRYDEN         CLOUDY    41  32  70 SE12G21   29.93R
KENORA         LGT RAIN  37  36  93 SE13      29.86F
$$
                *** MANITOBA***

CITY           SKY/WX    TMP DP  RH WIND       PRES   REMARKS
BRANDON        CLOUDY    41  41 100 S3        29.72R FOG
DAUPHIN        LGT RAIN  37  36  93 SE13G18   29.73S FOG
ISLAND LAKE    PTSUNNY   32  27  80 E15G23    30.08F WCI  22
PILOT MOUND      N/A     41  39  93 S10         N/A
THE PAS        CLOUDY    30  21  69 E18G29    29.92S WCI  18
THOMPSON       CLOUDY    23  18  80 NE22G28   30.19F WCI   8
WINNIPEG       DRIZZLE   39  37  93 SE15      29.78F
LYNN LAKE      MOSUNNY   23  16  74 E20G26    30.15F WCI   8
CHURCHILL      FLURRIES  18  12  79 NE8       30.46S WCI   7
GILLAM         MOSUNNY   23  12  63 E13       30.31  WCI  11
$$
                ***SASKATCHEWAN***

CITY           SKY/WX    TMP DP  RH WIND       PRES   REMARKS
ESTEVAN        PTSUNNY   48  41  76 NW12      29.70R
KINDERSLEY     CLOUDY    39  34  81 NW16G28   29.64R
LLOYDMINSTER   LGT SNOW  34  34 100 NE9       29.64R FOG
PRINCE ALBERT  LGT SNOW  34  30  86 E26       29.67R WCI  21
REGINA         CLOUDY    41  36  81 W16       29.67R
YORKTON        CLOUDY    39  37  93 SE12      29.65R
N. BATTLEFORD  CLOUDY    36  36 100 E9        29.63R
LA RONGE       CLOUDY    30  23  74 NE17G28   29.90R WCI  18
SASKATOON      DRIZZLE   37  37 100 W12       29.58S
SWIFT CURRENT  SUNNY     45  32  61 W24G32    29.66S
$$
NOTE: THESE ARE AUTOMATED STATIONS WITH LIMITED QUALITY CONTROL
      "FAIR" INDICATES FEW OR NO CLOUDS BELOW 12,000 FEET WITH NO
      SIGNIFICANT WEATHER AND/OR OBSTRUCTIONS TO VISIBILITY.
      SKY/WX - SKY CONDITION AND SIGNIFICANT WEATHER.
      TMP - AIR TEMPERATURE.    DP   - DEWPOINT TEMPERATURE.
      RH  - RELATIVE HUMIDITY.  PRES - PRESSURE.
      HX  - HEAT INDEX.         WCI  - WIND CHILL INDEX.
$



USA.gov is the U.S. government's official web portal to all federal, state and local government web resources and services.